Torna al catalogo

CZ-3A R/B

AttivoHEO
NORAD 30324·ROCKET BODY·🇨🇳 China

Lanciato Feb 2, 2007 da Xichang Satellite Launch Center

Loading…

Prossimi Passaggi (prossime 24 ore)

TLE

AggiornatoSource: Space-Track

Epoca: Sep 14, 2026, 14:05 UTC

1 30324U 07003B   26257.58707580  .00004666  00000-0  78779-3 0  9997
2 30324  24.6607 266.1375 5766049 243.2497  47.5920  4.40225122237413

Traccia CZ-3A R/B in tempo reale con AllMySat

Download on the App Store